TimePDT,TemperatureF,Dew PointF,Humidity,Sea Level PressureIn,VisibilityMPH,Wind Direction,Wind SpeedMPH,Gust SpeedMPH,PrecipitationIn,Events,Conditions,WindDirDegrees,DateUTC
12:56 AM,57.0,33.1,40,29.92,10.0,WSW,6.9,-,N/A,,Clear,240,2013-03-26 07:56:00
1:56 AM,60.1,30.0,32,29.90,10.0,WSW,12.7,-,N/A,,Clear,240,2013-03-26 08:56:00
2:56 AM,57.9,30.0,35,29.90,10.0,SW,11.5,-,N/A,,Clear,230,2013-03-26 09:56:00
3:56 AM,55.9,28.9,36,29.89,10.0,SW,10.4,-,N/A,,Clear,230,2013-03-26 10:56:00
4:56 AM,55.0,33.1,43,29.89,10.0,SW,9.2,-,N/A,,Clear,230,2013-03-26 11:56:00
5:56 AM,52.0,30.9,45,29.90,10.0,WSW,8.1,-,N/A,,Clear,250,2013-03-26 12:56:00
6:56 AM,48.0,30.9,52,29.92,10.0,WNW,6.9,-,N/A,,Clear,290,2013-03-26 13:56:00
7:56 AM,55.0,32.0,42,29.93,10.0,West,3.5,-,N/A,,Clear,280,2013-03-26 14:56:00
8:56 AM,64.0,30.9,29,29.93,10.0,West,6.9,-,N/A,,Clear,270,2013-03-26 15:56:00
9:56 AM,68.0,28.9,23,29.92,10.0,West,12.7,-,N/A,,Clear,260,2013-03-26 16:56:00
10:56 AM,70.0,27.0,20,29.92,10.0,SW,10.4,-,N/A,,Clear,230,2013-03-26 17:56:00
11:56 AM,73.0,25.0,17,29.91,10.0,SW,11.5,20.7,N/A,,Clear,220,2013-03-26 18:56:00
12:56 PM,75.0,26.1,16,29.89,10.0,WSW,13.8,20.7,N/A,,Clear,240,2013-03-26 19:56:00
1:56 PM,75.9,26.1,16,29.87,10.0,WSW,10.4,17.3,N/A,,Clear,250,2013-03-26 20:56:00
2:56 PM,78.1,25.0,14,29.85,10.0,WSW,15.0,27.6,N/A,,Clear,240,2013-03-26 21:56:00
3:56 PM,75.9,32.0,20,29.85,10.0,WSW,18.4,25.3,N/A,,Clear,250,2013-03-26 22:56:00
4:56 PM,75.0,19.9,13,29.86,10.0,West,19.6,27.6,N/A,,Clear,270,2013-03-26 23:56:00
5:56 PM,72.0,21.0,15,29.86,10.0,West,23.0,-,N/A,,Clear,270,2013-03-27 00:56:00
6:56 PM,66.9,25.0,21,29.88,10.0,West,19.6,-,N/A,,Clear,260,2013-03-27 01:56:00
7:56 PM,62.1,42.1,48,29.89,10.0,WSW,13.8,-,N/A,,Clear,250,2013-03-27 02:56:00
8:56 PM,59.0,37.9,46,29.90,10.0,West,13.8,-,N/A,,Clear,270,2013-03-27 03:56:00
9:56 PM,59.0,32.0,36,29.91,10.0,West,17.3,-,N/A,,Clear,260,2013-03-27 04:56:00
10:56 PM,59.0,32.0,36,29.90,10.0,West,17.3,-,N/A,,Clear,260,2013-03-27 05:56:00
11:56 PM,57.0,34.0,42,29.91,10.0,West,12.7,-,N/A,,Clear,260,2013-03-27 06:56:00